Total_Precipitation_Accumulation
0.05 0.09 0.15 0.19 0.19 0.17 0.13 0.12 0.18 0.22 0.43 0.48 0.61 0.82 1.00 1.01 0.87 0.78 0.85 0.88 0.88 0.96 1.14 1.29 1.46 1.53 1.53 1.57 1.65 1.80 1.95 2.08 2.35 2.53 2.53 2.39 2.33 2.40 2.44 2.53 2.47 2.67 2.69 2.68
0.05 0.08 0.14 0.17 0.19 0.14 0.11 0.11 0.14 0.21 0.36 0.47 0.64 0.74 0.84 0.79 0.75 0.83 0.88 0.88 0.84 0.95 1.15 1.22 1.28 1.39 1.44 1.51 1.60 1.70 1.82 2.00 2.27 2.53 2.68 2.62 2.62 2.78 2.80 2.76 2.84 2.96 2.95 2.92
0.08 0.12 0.14 0.24 0.20 0.16 0.16 0.14 0.18 0.29 0.36 0.46 0.60 0.72 0.86 0.88 0.88 0.93 0.94 0.91 0.91 0.94 1.03 1.24 1.20 1.23 1.38 1.49 1.67 1.87 2.13 2.35 2.50 2.73 2.90 2.84 2.72 2.73 2.76 2.81 2.80 2.87 2.93 3.01
0.14 0.18 0.28 0.29 0.25 0.24 0.25 0.30 0.31 0.36 0.46 0.56 0.64 0.75 0.86 0.93 0.91 1.02 1.12 1.21 1.26 1.34 1.31 1.40 1.37 1.39 1.50 1.65 1.85 1.97 2.11 2.34 2.53 2.74 2.84 2.91 2.93 2.87 2.95 3.06 3.09 3.12 3.12 3.12
0.24 0.28 0.34 0.37 0.37 0.39 0.43 0.55 0.59 0.67 0.76 0.75 0.76 0.79 0.94 1.07 1.15 1.25 1.24 1.29 1.41 1.51 1.52 1.53 1.60 1.76 1.95 2.02 2.20 2.37 2.49 2.67 2.76 2.80 2.87 2.91 2.95 3.08 3.21 3.32 3.32 3.35 3.33 3.31
0.36 0.46 0.55 0.56 0.53 0.49 0.59 0.95 0.85 0.92 1.03 1.02 1.08 1.33 1.40 1.38 1.37 1.42 1.40 1.43 1.52 1.56 1.61 1.81 1.86 1.94 2.12 2.35 2.52 2.70 2.86 2.97 3.04 3.10 3.10 3.06 3.07 3.19 3.28 3.35 3.38 3.41 3.30 3.30
0.50 0.54 0.60 0.60 0.58 0.59 1.03 1.41 1.32 1.32 1.36 1.29 1.44 1.54 1.41 1.33 1.46 1.53 1.60 1.66 1.70 1.75 1.84 1.97 2.03 2.09 2.27 2.55 2.79 3.00 3.03 3.08 3.16 3.26 3.43 3.56 3.60 3.41 3.27 3.28 3.38 3.43 3.37 3.39
0.78 0.96 1.02 0.72 0.78 1.15 1.43 1.36 1.59 1.49 1.34 1.36 1.37 1.33 1.29 1.29 1.46 1.66 1.81 1.90 1.95 2.00 2.05 2.06 2.14 2.26 2.36 2.60 2.74 2.93 2.97 3.10 3.20 3.26 3.19 3.21 3.53 3.61 3.58 3.47 3.34 3.32 3.36 3.26
1.10 1.25 1.12 0.94 1.00 1.28 1.33 1.32 1.46 1.46 1.28 1.25 1.27 1.22 1.24 1.31 1.42 1.60 1.77 1.88 1.91 1.99 2.11 2.06 2.06 2.24 2.50 2.57 2.64 2.68 2.80 2.94 3.17 3.28 3.35 3.33 3.34 3.45 3.47 3.38 3.17 2.94 2.95 2.99
1.44 1.48 1.34 1.17 1.05 1.12 1.19 1.25 1.30 1.44 1.44 1.33 1.31 1.27 1.34 1.39 1.47 1.66 1.75 1.76 1.83 1.84 1.90 1.98 2.09 2.27 2.34 2.37 2.52 2.77 2.89 2.93 3.01 3.11 3.16 3.24 3.34 3.31 3.26 3.23 3.15 2.97 2.94 2.95
1.95 2.01 1.85 1.68 1.43 1.31 1.28 1.31 1.40 1.51 1.57 1.62 1.58 1.54 1.60 1.55 1.61 1.74 1.74 1.68 1.77 1.87 1.91 1.99 2.05 2.23 2.37 2.41 2.47 2.62 2.71 2.68 2.77 2.93 3.02 3.10 3.24 3.31 3.16 3.04 3.07 2.95 2.98 3.15
2.35 2.18 2.19 2.03 1.67 1.50 1.51 1.61 1.60 1.62 1.66 1.63 1.62 1.60 1.64 1.69 1.63 1.60 1.61 1.70 1.82 1.89 1.97 2.01 2.06 2.15 2.21 2.29 2.42 2.57 2.64 2.68 2.68 2.71 2.86 2.96 2.92 2.98 3.02 2.76 2.69 2.52 2.56 2.63
1.98 1.98 2.04 1.92 1.75 1.64 1.68 1.67 1.72 1.78 1.75 1.66 1.60 1.60 1.60 1.67 1.75 1.67 1.61 1.65 1.77 1.82 1.85 1.93 1.95 2.00 2.00 2.07 2.36 2.66 2.74 2.84 2.79 2.61 2.55 2.59 2.62 2.59 2.60 2.50 2.24 2.10 2.07 2.00
1.98 2.01 2.11 2.00 1.95 1.79 1.78 1.67 1.62 1.60 1.54 1.55 1.60 1.62 1.57 1.58 1.70 1.80 1.77 1.77 1.89 1.95 1.82 1.74 1.76 1.82 1.87 1.94 2.08 2.31 2.39 2.48 2.46 2.34 2.27 2.25 2.27 2.27 2.17 2.17 2.07 1.90 1.84 1.80
1.84 1.85 1.98 1.90 1.85 1.85 1.87 1.84 1.73 1.62 1.50 1.56 1.63 1.66 1.73 1.80 1.89 2.01 2.02 2.04 2.11 2.10 1.94 1.77 1.72 1.76 1.81 1.92 2.03 2.10 2.19 2.21 2.16 2.15 2.21 2.28 2.37 2.41 2.31 2.19 2.17 2.09 1.96 1.80
1.72 1.79 1.79 1.86 2.00 1.89 1.82 1.85 1.87 1.79 1.63 1.64 1.71 1.72 1.76 1.82 1.94 1.98 2.01 2.17 2.36 2.37 2.21 2.08 1.94 1.83 1.79 1.92 2.09 2.15 2.16 2.34 2.28 2.12 2.13 2.33 2.46 2.46 2.50 2.54 2.44 2.46 2.41 2.08
1.88 1.91 1.82 1.87 1.99 2.01 1.96 1.89 1.92 1.87 1.81 1.83 1.85 1.74 1.73 1.82 1.96 2.07 1.99 2.00 2.14 2.22 2.19 2.10 1.98 1.87 1.89 1.93 2.02 2.15 2.17 2.22 2.23 2.09 2.10 2.22 2.34 2.45 2.48 2.55 2.62 2.61 2.56 2.35
1.74 1.65 1.62 1.68 1.74 1.83 1.92 1.95 1.96 1.87 1.80 1.78 1.83 1.80 1.81 1.90 2.04 2.09 2.01 1.92 1.90 1.96 2.00 1.93 1.84 1.81 1.85 1.87 1.96 2.13 2.15 2.12 2.10 2.12 2.18 2.25 2.29 2.43 2.61 2.64 2.66 2.72 2.58 2.50
1.71 1.58 1.52 1.53 1.51 1.57 1.71 1.84 1.87 1.81 1.73 1.73 1.80 1.81 1.77 1.77 1.89 2.01 2.01 2.10 2.13 2.07 1.92 1.78 1.75 1.66 1.70 1.78 1.81 1.88 1.91 1.97 2.08 2.15 2.21 2.30 2.33 2.37 2.46 2.52 2.58 2.65 2.52 2.48
1.85 1.78 1.65 1.55 1.52 1.51 1.59 1.63 1.71 1.78 1.71 1.70 1.73 1.78 1.76 1.74 1.83 2.07 2.21 2.28 2.32 2.19 2.00 1.84 1.55 1.48 1.54 1.63 1.61 1.51 1.54 1.64 1.70 1.81 1.96 2.07 2.12 2.23 2.21 2.19 2.25 2.32 2.29 2.31
2.01 1.93 1.84 1.74 1.74 1.63 1.59 1.55 1.60 1.72 1.76 1.80 1.90 1.95 1.86 1.77 1.79 2.06 2.45 2.53 2.34 2.10 1.95 1.89 1.55 1.35 1.24 1.34 1.47 1.46 1.53 1.55 1.54 1.65 1.74 1.83 1.92 2.00 2.10 2.17 2.17 2.15 2.17 2.16
2.11 2.01 1.92 1.81 1.73 1.70 1.66 1.61 1.63 1.72 1.74 1.79 1.78 1.79 1.82 1.74 1.76 2.00 2.26 2.47 2.30 2.10 1.72 1.59 1.44 1.26 1.20 1.17 1.16 1.30 1.43 1.50 1.51 1.58 1.65 1.71 1.78 1.84 1.93 1.96 1.95 1.90 1.92 1.98
2.18 2.03 1.95 1.83 1.75 1.72 1.70 1.75 1.76 1.79 1.77 1.72 1.69 1.79 1.85 1.86 1.85 2.06 2.18 1.95 1.76 1.77 1.55 1.46 1.39 1.25 1.15 1.12 1.15 1.19 1.27 1.36 1.41 1.44 1.47 1.53 1.62 1.70 1.75 1.78 1.79 1.70 1.70 1.73
2.08 2.10 2.14 2.08 1.88 1.80 1.86 1.86 1.86 1.84 1.71 1.69 1.69 1.78 1.84 1.85 1.82 1.74 1.77 1.76 1.70 1.62 1.45 1.45 1.33 1.16 1.05 0.97 1.07 1.17 1.26 1.33 1.35 1.34 1.33 1.41 1.49 1.56 1.65 1.73 1.77 1.71 1.65 1.58
2.02 2.02 2.04 2.04 1.96 1.91 1.87 1.84 1.89 1.88 1.78 1.76 1.70 1.71 1.73 1.73 1.72 1.69 1.63 1.60 1.62 1.53 1.39 1.42 1.34 1.29 1.17 1.13 1.17 1.23 1.27 1.35 1.39 1.38 1.41 1.44 1.48 1.55 1.61 1.66 1.68 1.64 1.58 1.56
2.05 1.98 1.96 1.93 1.85 1.89 1.90 1.91 1.96 1.93 1.84 1.78 1.77 1.72 1.67 1.62 1.59 1.63 1.71 1.65 1.48 1.43 1.34 1.33 1.29 1.31 1.26 1.30 1.35 1.34 1.30 1.35 1.39 1.36 1.42 1.55 1.61 1.63 1.60 1.52 1.51 1.54 1.47 1.40
2.06 1.99 1.97 1.89 1.84 1.82 1.86 1.88 1.92 1.95 1.86 1.77 1.78 1.77 1.75 1.78 1.79 1.76 1.74 1.71 1.58 1.46 1.37 1.32 1.27 1.20 1.20 1.24 1.29 1.34 1.34 1.34 1.34 1.36 1.41 1.49 1.52 1.51 1.46 1.42 1.44 1.45 1.36 1.33